HAWK-3B

Last updated on Fri Dec 29 2023 00:03:29 GMT+0000 (Coordinated Universal Time)

1 48931U 21059BE 23361.89118801 .00009014 00000+0 37123-3 0 9995 2 48931 97.6068 137.8404 0012256 330.1165 29.9371 15.24280557138759
UTC large
Height (km)
Speed (km/s)
/
Latitude / Longitude
Inclination (degrees)
Orbital Period (minutes)
Azimuth
Elevation
Range (km)
Doppler Factor

Next 0 passes for location: London (51.5072 / 0.1276)

Sorry there are no passes over London.